Location: Bonningues
(50.7927°N, 2.0150°E)
Time: 21:55:20
(UTC+00:00)

Cosmos 2278 - Pass Details

Date: 08 August 2020
Orbit: 839 x 853 km, 71.1° (Epoch: 22 September)

Event Time Altitude Azimuth Distance (km) Brightness Sun altitude
Rises 20:02:48 0° 331° (NNW) 3,435 8.2 -6.0°
Reaches altitude 10° 20:05:21 10° 337° (NNW) 2,495 7.2 -6.4°
Maximum altitude 20:10:55 49° 52° (NE) 1,088 4.2 -7.1°
Drops below altitude 10° 20:16:26 10° 128° (SE) 2,477 5.4 -7.8°
Enters shadow 20:16:34 - 128° (SE) 2,523 5.5 -7.8°
